OPS 5798 DEB, 901

Orbit data source: Space-Track

OPS 5798 DEB, 901 is space debris in LEO originally from a launch on Tue, 06 Oct 1964 UTC launched from the Air Force Western Test Range (AFWTR). Debris objects in space refer to the collection of defunct objects orbiting the Earth. Examples of debris include non-operational satellites, rocket bodies, and fragments generated from explosions, collisions, or faulty payload assembly.

Loading next visibility...
Identifier
901, 1964-063D
Orbit
LEO
Country
Flag of USUS
Related business
Manufacturer
NAFI?
Mission
Spacecraft
Bus & Motor
Unknown
Mass
~20 kg wet, ~20 kg dry
Launch date (UTC)
1964-10-06 (61 years ago)
Launch vehicle
Unknown
Launch site
Air Force Western Test Range (AFWTR)
Object type
Payload
Rocket body
Debris
Shape & HBR
Unknown shape, 0.6 m
Radar Cross Section
Large (>1 m²)

Expand to show TLE details & history
Last TLE update: 13 hours ago

TLE from 13 hours ago
0 OPS 5798 DEB
1   901U 64063D   25289.15829005  .00000160  00000-0  21886-3 0  9990
2   901  90.2322  70.6290 0021036 111.6077  61.2802 13.55090368 13417
Epoch: 2025-10-16T03:47Z
TLE epoch observation values (Epoch: 2025-10-16T03:47:56.260Z)
Latitude
6.82601°
Longitude
168.75021°
Altitude
1,048.436 km
Speed
7.332 km/s
True Right ascension
16h 42m 37s
True Declination
6° 47' 14"
Sunlit
Object was in daylight at epoch
Visualization orbit readout
Latitude
Unknown
Longitude
Unknown
Altitude
Unknown
Speed
Unknown
Apparent Right ascension
Unknown
Apparent Declination
Unknown
Sunlit
N/A
Visualization observer readout
Local Sidereal Time
11:15:33
Azimuth
Unknown
Elevation
Unknown
Doppler factor
Unknown
Orbital elements
Apogee altitude
1,066.258 km
Perigee altitude
1,035.004 km
Semi-major axis
7,428.768 km
Eccentricity
0.0021
Inclination
90.2322°
RAAN
70.629°
Arg. of periapsis
111.6077°
True anomaly
61.49187°
Mean anomaly
61.2802°
Eccentric anomaly
61.38601°
Mean motion
3.38975 °/min
Orbital period
106.2 mins
BSTAR
0.00021886
Loading maneuver chart data...
Computing Atmospheric mass density...
Loading historical data...
Loading historical data...
Loading historical data...
Loading historical data...
Loading historical data...
Loading historical data...
Loading historical data...

Documentation

Showing up to 5 results
|